Preview of NWS' New Version of Forecast
This preview is not operational and should not be used for support decisions.

Regional Weather Roundup (RWR)

Issued by National Weather Service (NWS)

                            
000
ASCA42 TJSJ 230010
RWRPR 
PUERTO RICO/U.S. VIRGIN ISLANDS HOURLY WEATHER ROUNDUP
NATIONAL WEATHER SERVICE SAN JUAN PR
800 PM AST WED MAY 22 2019

PRZ001>002-007>008-010-230100-
PUERTO RICO
  
CITY           SKY/WX    TMP DP  RH WIND       PRES   REMARKS
SAN JUAN LMM   PTCLDY    81  73  78 E10       29.95R                  
AGUADILLA      MOCLDY    81  75  83 E10       29.96S                  
$$

VIZ001>002-230100-
U.S. VIRGIN ISLANDS
  
CITY           SKY/WX    TMP DP  RH WIND       PRES   REMARKS
CHARLOTTE AMA  CLEAR     81  72  74 E8        29.95R                  
CHRISTIANSTED  MOCLDY    79  72  78 NE8       29.96R                  
$$

HOURLY WEATHER ROUNDUP FOR THE NEWS MEDIA
  
CITY           SKY/WX    TMP DP  RH WIND       PRES   REMARKS
ORLANDO        FAIR      80  63  55 E17       30.12R                  
NEW YORK       MOCLDY    63  49  60 S14       30.22S                  
NEWARK         MOCLDY    71  43  36 SE9       30.19S                  
CHICAGO        PTSUNNY   80  56  43 S18G36    29.83R                  
HARTFORD       FAIR      54  40  59 S8        30.26R                  
BOSTON         MOCLDY    59  41  51 SE9       30.24R                  
DALLAS         MOSUNNY   89  68  49 S15G25    29.76F HX  93           
PHILADELPHIA   MOCLDY    71  41  33 SW7       30.20F                  
LOS ANGELES    PTSUNNY   64  47  53 SW16      29.73S                  
WASHINGTON DC  MOCLDY    67  48  50 SE9       30.23R